Marathon Shores, FL

5:55 PM EST on February 22, 2017 (GMT -0500)
Florida Keys Marathon

Weather History for KMTH - July, 2013

Change the Weather History Date:

Monday, July 22, 2013

  Actual Average Record
Temperature  
Mean Temperature 87 °F 85 °F  
Max Temperature 91 °F 91 °F 93 °F (2000)
Min Temperature 82 °F 79 °F 72 °F (2001)
Degree Days  
Heating Degree Days 0 0  
Month to date heating degree days 0 0  
Since 1 June heating degree days 0 0  
Since 1 July heating degree days 0 0  
Cooling Degree Days 22 20  
Month to date cooling degree days 431 440  
Year to date cooling degree days 2877 2577  
Since 1 June cooling degree days 1047 1034  
Growing Degree Days 36 (Base 50)    
Moisture  
Dew Point 73 °F    
Average Humidity 67    
Maximum Humidity 74    
Minimum Humidity 59    
Precipitation  
Precipitation 0.00 in 0.16 in 0.76 in (2001)
Month to date precipitation 6.71 2.94  
Year to date precipitation 35.72 20.49  
Snow  
Snow 0.00 in - - ()
Month to date snowfall 0.0  
Since 1 June snowfall 0.0  
Since 1 July snowfall 0.0  
Snow Depth 0.00 in    
Sea Level Pressure  
Sea Level Pressure 30.11 in    
Wind  
Wind Speed 6 mph (ESE)    
Max Wind Speed 10 mph    
Max Gust Speed 18 mph    
Visibility 10 miles    
Events      
T = Trace of Precipitation, MM = Missing Value Source: NWS Daily Summary

Daily Weather History Graph

Daily Weather History Graph

Search for Another Location

Airport or City:

Trip Planner

Search our weather history database for the weather conditions in past years. The results will help you decide how hot, cold, wet, or windy it might be!

Date:

Astronomy

Jul. 22, 2013 Rise Set
Actual Time 6:47 AM EDT 8:13 PM EDT
Civil Twilight 6:22 AM EDT 8:38 PM EDT
Nautical Twilight 5:53 AM EDT 9:08 PM EDT
Astronomical Twilight 5:22 AM EDT 9:38 PM EDT
Moon 8:08 PM EDT 6:36 AM EDT
Length of Visible Light 14h 15m
Length of Day
13h 25m
Full, 100% of the Moon is Illuminated
Jul 22
Full
Jul 22
Full
Jul 29
Last Quarter
Aug 6
New
Aug 14
First Quarter

Hourly Weather History & Observations

Time (EDT) Temp. Heat Index Dew Point Humidity Pressure Visibility Wind Dir Wind Speed Gust Speed Precip Events Conditions
12:34 AM 84.2 °F 89.6 °F 71.6 °F 66% 30.14 in 10.0 mi East 5.8 mph - N/A   Mostly Cloudy
12:53 AM 84.0 °F 89.6 °F 72.0 °F 67% 30.14 in 10.0 mi East 5.8 mph - N/A   Scattered Clouds
1:53 AM 82.9 °F 88.8 °F 73.0 °F 72% 30.12 in 10.0 mi East 6.9 mph - N/A   Scattered Clouds
2:53 AM 82.9 °F 88.0 °F 72.0 °F 69% 30.10 in 10.0 mi East 8.1 mph - N/A   Partly Cloudy
3:53 AM 82.9 °F 88.0 °F 72.0 °F 69% 30.09 in 10.0 mi ESE 5.8 mph - N/A   Clear
4:53 AM 82.9 °F 88.8 °F 73.0 °F 72% 30.08 in 10.0 mi ESE 4.6 mph - N/A   Partly Cloudy
5:53 AM 82.9 °F 88.8 °F 73.0 °F 72% 30.08 in 10.0 mi ESE 5.8 mph - N/A   Clear
6:53 AM 82.9 °F 88.8 °F 73.0 °F 72% 30.09 in 9.0 mi ESE 8.1 mph - N/A   Clear
7:53 AM 84.0 °F 91.2 °F 73.9 °F 72% 30.11 in 8.0 mi ESE 8.1 mph - N/A   Mostly Cloudy
8:05 AM 84.2 °F 90.9 °F 73.4 °F 70% 30.11 in 9.0 mi Variable 4.6 mph - N/A   Scattered Clouds
8:19 AM 84.2 °F 90.9 °F 73.4 °F 70% 30.12 in 9.0 mi ESE 6.9 mph - N/A   Mostly Cloudy
8:40 AM 84.2 °F 90.9 °F 73.4 °F 70% 30.12 in 9.0 mi Variable 6.9 mph - N/A   Scattered Clouds
8:53 AM 84.9 °F 90.7 °F 72.0 °F 65% 30.13 in 9.0 mi ESE 5.8 mph - N/A   Partly Cloudy
9:53 AM 87.1 °F 93.6 °F 72.0 °F 61% 30.14 in 9.0 mi ESE 4.6 mph - N/A   Partly Cloudy
10:53 AM 88.0 °F 95.6 °F 73.0 °F 61% 30.15 in 10.0 mi ESE 5.8 mph - N/A   Clear
11:53 AM 88.0 °F 95.6 °F 73.0 °F 61% 30.15 in 10.0 mi ESE 6.9 mph - N/A   Partly Cloudy
12:53 PM 90.0 °F 99.0 °F 73.9 °F 59% 30.14 in 10.0 mi SE 6.9 mph - N/A   Partly Cloudy
1:53 PM 90.0 °F 99.0 °F 73.9 °F 59% 30.13 in 10.0 mi Variable 6.9 mph - N/A   Partly Cloudy
2:53 PM 90.0 °F 99.0 °F 73.9 °F 59% 30.11 in 10.0 mi Variable 3.5 mph - N/A   Clear
3:53 PM 90.0 °F 97.9 °F 73.0 °F 57% 30.09 in 10.0 mi Variable 5.8 mph - N/A   Partly Cloudy
4:53 PM 87.1 °F 94.5 °F 73.0 °F 63% 30.08 in 10.0 mi Variable 4.6 mph - N/A   Scattered Clouds
5:07 PM 89.6 °F 98.2 °F 73.4 °F 59% 30.08 in 9.0 mi Variable 3.5 mph - N/A   Mostly Cloudy
5:18 PM 89.6 °F 98.2 °F 73.4 °F 59% 30.08 in 10.0 mi East 8.1 mph - N/A   Scattered Clouds
5:53 PM 88.0 °F 95.6 °F 73.0 °F 61% 30.08 in 10.0 mi ESE 6.9 mph - N/A   Partly Cloudy
6:53 PM 87.1 °F 94.5 °F 73.0 °F 63% 30.08 in 10.0 mi East 6.9 mph - N/A   Partly Cloudy
7:53 PM 84.9 °F 90.7 °F 72.0 °F 65% 30.09 in 10.0 mi East 4.6 mph - N/A   Clear
8:53 PM 84.0 °F 90.2 °F 73.0 °F 69% 30.09 in 10.0 mi East 5.8 mph - N/A   Clear
9:53 PM 84.0 °F 90.2 °F 73.0 °F 69% 30.10 in 10.0 mi East 6.9 mph - N/A   Clear
10:53 PM 84.0 °F 90.2 °F 73.0 °F 69% 30.11 in 10.0 mi East 8.1 mph - N/A   Clear
11:53 PM 84.0 °F 90.2 °F 73.0 °F 69% 30.12 in 10.0 mi East 8.1 mph - N/A   Clear